Location: Belmont
(13.0833°N, 59.6000°W)
Time: 00:30:19
(UTC+00:00)

MOS 1 - Pass Details

Date: 17 September 2019
Orbit: 878 x 892 km, 99.2° (Epoch: 20 October)

Event Time Altitude Azimuth Distance (km) Brightness Sun altitude
Exits shadow 23:40:58 62° 134° (SE) 993 4.2 -25.7°
Maximum altitude 23:41:50 75° 77° (ENE) 923 4.1 -25.9°
Drops below altitude 10° 23:47:30 10° 352° (N) 2,552 6.9 -27.3°
Sets 23:49:54 0° 351° (N) 3,491 7.6 -27.9°
